Regional Weather Roundup
Issued by NWS Little Rock, AR

Home | Current Version | Previous Version | Text Only | Print | Product List | Glossary Off
Versions: 1 2 3 4 5 6 7 8 9 10 11 12 13 14 15 16 17 18 19 20 21 22 23 24 25 26 27 28 29 30 31 32

000
ASUS44 KLZK 080605
RWRLZK

WEATHER ROUNDUP FOR ARKANSAS
NATIONAL WEATHER SERVICE LITTLE ROCK AR
1200 AM CST THU DEC 08 2016

NOTE: "FAIR" INDICATES FEW OR NO CLOUDS BELOW 12,000 FEET WITH NO
SIGNIFICANT WEATHER AND/OR OBSTRUCTIONS TO VISIBILITY.

ARZ001-003-010-029-080700-
NORTHWEST ARKANSAS

CITY           SKY/WX    TMP DP  RH WIND       PRES   REMARKS
FAYETTEVILLE   CLOUDY    28  24  85 N7        30.43R WCI  21
6HR MIN TEMP:  28; 6HR MAX TEMP:  33;

FORT SMITH     CLOUDY    36  26  67 N12       30.43R
6HR MIN TEMP:  36; 6HR MAX TEMP:  37; 6HR PCP:  0.01;

HARRISON       CLOUDY    30  25  81 NW8       30.39R WCI  22
6HR MIN TEMP:  29; 6HR MAX TEMP:  34;

BENTONVILLE    CLOUDY    28  19  69 N14       30.44R WCI  17
6HR MIN TEMP:  28; 6HR MAX TEMP:  36;

ROGERS         CLOUDY    28  24  85 N9        30.44R WCI  19
6HR MIN TEMP:  27; 6HR MAX TEMP:  34;

SILOAM SPGS    CLOUDY    28  23  80 N15       30.44R WCI  17
6HR MIN TEMP:  27; 6HR MAX TEMP:  34;

HIGHFILL       CLOUDY    29  24  82 N13       30.43R WCI  19
6HR MIN TEMP:  27; 6HR MAX TEMP:  35;

$$

ARZ004-005-016-080700-
NORTH CENTRAL ARKANSAS

CITY           SKY/WX    TMP DP  RH WIND       PRES   REMARKS
BATESVILLE     CLOUDY    37  19  48 N6        30.37S
6HR MIN TEMP:  37; 6HR MAX TEMP:  39;

FLIPPIN        CLOUDY    34  21  60 NW13      30.37R WCI  25
6HR MIN TEMP:  34; 6HR MAX TEMP:  39;

MTN HOME       CLOUDY    32  24  72 N8        30.38R WCI  25
6HR MIN TEMP:  32; 6HR MAX TEMP:  36;

$$

ARZ040-041-080700-
WEST CENTRAL ARKANSAS

CITY           SKY/WX    TMP DP  RH WIND       PRES   REMARKS
MENA           CLOUDY    37  36  93 NE7       30.37R
MOUNT IDA      CLOUDY    36  29  75 CALM      30.34R
6HR MIN TEMP:  35; 6HR MAX TEMP:  38;

$$

ARZ009-017-025-026-028-080700-
NORTHEAST ARKANSAS

CITY           SKY/WX    TMP DP  RH WIND       PRES   REMARKS
CORNING        CLOUDY    37  25  60 N10       30.36R
JONESBORO      CLOUDY    40  22  48 N5        30.35R
6HR MIN TEMP:  40; 6HR MAX TEMP:  42;

WALNUT RIDGE   CLOUDY    37  21  52 N9        30.36R
6HR MIN TEMP:  37; 6HR MAX TEMP:  39;

BLYTHEVILLE    CLOUDY    38  29  70 N9        30.34R
6HR MIN TEMP:  38; 6HR MAX TEMP:  42;

$$

ARZ022-023-033-042-044-080700-
CENTRAL ARKANSAS

CITY           SKY/WX    TMP DP  RH WIND       PRES   REMARKS
LITTLE ROCK    CLOUDY    38  28  67 N9        30.36R
6HR MIN TEMP:  38; 6HR MAX TEMP:  41;

JACKSONVILLE   CLOUDY    40  26  58 NW5       30.35R
6HR MIN TEMP:  39; 6HR MAX TEMP:  41; 6HR PCP: TRACE;

SEARCY         CLOUDY    40  23  50 N8        30.38R
6HR MIN TEMP:  40; 6HR MAX TEMP:  41;

HOT SPRINGS    CLOUDY    38  29  70 NW7       30.36R
6HR MIN TEMP:  37; 6HR MAX TEMP:  40;

RUSSELLVILLE   CLOUDY    37  31  78 NW3       30.39R
6HR MIN TEMP:  34; 6HR MAX TEMP:  37; 6HR PCP:  0.01;

CLINTON        CLOUDY    37  21  52 N8        30.38R
$$

ARZ036-080700-
EAST ARKANSAS

CITY           SKY/WX    TMP DP  RH WIND       PRES   REMARKS
WEST MEMPHIS   CLOUDY    40  26  57 NE13G20   30.32R
6HR MIN TEMP:  40; 6HR MAX TEMP:  43;

$$

ARZ050-053-066-070-073-080700-
SOUTHWEST ARKANSAS

CITY           SKY/WX    TMP DP  RH WIND       PRES   REMARKS
ARKADELPHIA    LGT RAIN  38  35  89 N9        30.37R
6HR MIN TEMP:  38; 6HR MAX TEMP:  42; 6HR PCP: TRACE;

CAMDEN         CLOUDY    39  36  87 N9G17     30.35R FOG
TEXARKANA      CLOUDY    39  38  96 NE10      30.35R
6HR MIN TEMP:  39; 6HR MAX TEMP:  44; 6HR PCP:  0.02;

EL DORADO      CLOUDY    40  38  93 N8        30.31R
6HR MIN TEMP:  40; 6HR MAX TEMP:  46;

DE QUEEN       CLOUDY    39  35  86 N6        30.36R
6HR MIN TEMP:  39; 6HR MAX TEMP:  42;

$$

ARZ056-057-069-080700-
SOUTHEAST ARKANSAS

CITY           SKY/WX    TMP DP  RH WIND       PRES   REMARKS
PINE BLUFF     CLOUDY    40  28  62 N8        30.35R
6HR MIN TEMP:  39; 6HR MAX TEMP:  43;

STUTTGART      CLOUDY    39  27  60 N10       30.35R
6HR MIN TEMP:  39; 6HR MAX TEMP:  43;

MONTICELLO     CLOUDY    43  35  73 N7        30.31R
6HR MIN TEMP:  43; 6HR MAX TEMP:  46;


$$






USA.gov is the U.S. government's official web portal to all federal, state and local government web resources and services.